Volver al catálogo

HULIANWANG DIGUI-141

ActivoComunicacionesLEO
NORAD 67439·PAYLOAD·🇨🇳 China

Lanzado Jan 13, 2026 desde Wenchang Space Launch Site

Loading…

Próximos Pases (próximas 24 horas)

TLE

ActualizadoSource: Space-Track

Época: Sep 14, 2026, 07:26 UTC

1 67439U 26007E   26257.31021237 -.00000080  00000-0  93905-4 0  9994
2 67439  50.0035 126.0950 0000435   0.4298 359.6575 13.29330350 32646

Sigue HULIANWANG DIGUI-141 en tiempo real con AllMySat

Download on the App Store